Location: Recife
(8.0585°S, 34.8848°W)
Time: 06:43:38
(UTC-03:00)

Vanguard 1 Rocket - Pass Details

Date: 15 April 2026
Orbit: 655 x 4212 km, 34.3° (Epoch: 13 May)

Event Time Altitude Azimuth Distance (km) Brightness Sun altitude
Rises 21:28:11 0° 278° (W) 7,824 12.6 -62.5°
Reaches altitude 10° 21:36:24 10° 294° (WNW) 7,197 12.2 -64.5°
Maximum altitude 21:52:03 19° 332° (NNW) 6,579 11.7 -68.3°
Drops below altitude 10° 22:07:12 10° 11° (N) 6,809 11.7 -72.0°
Sets 22:14:54 0° 28° (NNE) 7,272 11.9 -73.9°
